• In Deutschland
  • Länderverzeichnis
  • Für 7 Tage
  • Wassertemperatur
  • Satellitenkarten
  • Wetterkarte
  • Widgets
  • user-avatar
    Anmelden

    Stündliche Wetter Jequitinhonha

    Heute, 24 April, Dienstag

    Zeit Temperatur Niederschläge Wind Luftdruck Luftfeuchtigkeit
    00:00 +22°C° 0 mm 1 m/S 745 mmHg 98%
    01:00 +22°C° 0 mm 1 m/S 745 mmHg 98%
    02:00 +22°C° 0 mm 1 m/S 745 mmHg 98%
    03:00 +22°C° 0 mm 1 m/S 745 mmHg 98%
    04:00 +22°C° 0 mm 1 m/S 745 mmHg 98%
    05:00 +22°C° 0 mm 1 m/S 744 mmHg 98%
    06:00 +22°C° 0 mm 1 m/S 744 mmHg 98%
    07:00 +24°C° 0 mm 1 m/S 745 mmHg 93%
    08:00 +25°C° 0 mm 1 m/S 745 mmHg 88%
    09:00 +26°C° 0 mm 2 m/S 745 mmHg 83%
    10:00 +28°C° 0 mm 2 m/S 745 mmHg 74%
    11:00 +29°C° 0 mm 2 m/S 745 mmHg 65%
    12:00 +31°C° 0 mm 2 m/S 745 mmHg 56%
    13:00 +31°C° 0 mm 2 m/S 744 mmHg 55%
    14:00 +31°C° 0 mm 2 m/S 744 mmHg 54%
    15:00 +31°C° 0 mm 2 m/S 743 mmHg 54%
    16:00 +29°C° 0 mm 2 m/S 743 mmHg 62%
    17:00 +27°C° 0 mm 2 m/S 744 mmHg 70%
    18:00 +26°C° 0 mm 2 m/S 744 mmHg 78%
    19:00 +25°C° 0 mm 2 m/S 744 mmHg 83%
    20:00 +24°C° 0 mm 1 m/S 745 mmHg 88%
    21:00 +23°C° 0 mm 1 m/S 745 mmHg 93%
    22:00 +23°C° 0 mm 1 m/S 745 mmHg 94%
    23:00 +23°C° 0 mm 1 m/S 745 mmHg 96%

    Morgen, 25 April, Mittwoch

    Zeit Temperatur Niederschläge Wind Luftdruck Luftfeuchtigkeit
    00:00 +22°C° 0 mm 1 m/S 745 mmHg 98%
    01:00 +22°C° 0 mm 1 m/S 745 mmHg 97%
    02:00 +23°C° 0 mm 1 m/S 745 mmHg 97%
    03:00 +23°C° 0 mm 1 m/S 744 mmHg 96%
    04:00 +23°C° 0 mm 1 m/S 744 mmHg 96%
    05:00 +23°C° 0 mm 1 m/S 744 mmHg 95%
    06:00 +23°C° 0 mm 1 m/S 745 mmHg 95%
    07:00 +24°C° 0,1 mm 1 m/S 745 mmHg 89%
    08:00 +25°C° 0,1 mm 1 m/S 746 mmHg 83%
    09:00 +26°C° 0,1 mm 1 m/S 746 mmHg 78%
    10:00 +28°C° 0,1 mm 1 m/S 746 mmHg 72%
    11:00 +29°C° 0,1 mm 1 m/S 746 mmHg 65%
    12:00 +31°C° 0,1 mm 2 m/S 745 mmHg 59%
    13:00 +31°C° 0,1 mm 2 m/S 745 mmHg 60%
    14:00 +31°C° 0,1 mm 2 m/S 744 mmHg 60%
    15:00 +31°C° 0,1 mm 2 m/S 743 mmHg 61%
    16:00 +29°C° 0,2 mm 2 m/S 743 mmHg 69%
    17:00 +27°C° 0,2 mm 2 m/S 743 mmHg 77%
    18:00 +25°C° 0,2 mm 2 m/S 744 mmHg 86%
    19:00 +25°C° 0 mm 2 m/S 744 mmHg 89%
    20:00 +24°C° 0 mm 1 m/S 745 mmHg 93%
    21:00 +23°C° 0 mm 1 m/S 745 mmHg 96%
    22:00 +23°C° 0 mm 1 m/S 745 mmHg 97%
    23:00 +23°C° 0 mm 1 m/S 745 mmHg 97%

    übermorgen, 26 April, Donnerstag

    Zeit Temperatur Niederschläge Wind Luftdruck Luftfeuchtigkeit
    00:00 +23°C° 0 mm 1 m/S 745 mmHg 98%
    01:00 +23°C° 0,1 mm 1 m/S 745 mmHg 97%
    02:00 +23°C° 0,1 mm 1 m/S 744 mmHg 97%
    03:00 +21°C° 0,1 mm 0 m/S 744 mmHg 96%
    04:00 +23°C° 0,1 mm 1 m/S 744 mmHg 97%
    05:00 +23°C° 0,1 mm 1 m/S 744 mmHg 97%
    06:00 +23°C° 0,1 mm 1 m/S 744 mmHg 97%
    07:00 +24°C° 0 mm 1 m/S 745 mmHg 91%
    08:00 +25°C° 0 mm 1 m/S 745 mmHg 85%
    09:00 +26°C° 0 mm 1 m/S 746 mmHg 80%
    10:00 +28°C° 0 mm 2 m/S 745 mmHg 72%
    11:00 +29°C° 0 mm 2 m/S 745 mmHg 65%
    12:00 +30°C° 0 mm 2 m/S 744 mmHg 58%
    13:00 +30°C° 0 mm 2 m/S 744 mmHg 58%
    14:00 +30°C° 0 mm 2 m/S 743 mmHg 58%
    15:00 +30°C° 0 mm 2 m/S 742 mmHg 58%
    16:00 +29°C° 0,1 mm 2 m/S 742 mmHg 67%
    17:00 +27°C° 0,1 mm 2 m/S 743 mmHg 76%
    18:00 +25°C° 0,1 mm 2 m/S 743 mmHg 85%
    19:00 +25°C° 0 mm 1 m/S 743 mmHg 89%
    20:00 +24°C° 0 mm 1 m/S 744 mmHg 93%
    21:00 +23°C° 0 mm 1 m/S 744 mmHg 96%
    22:00 +23°C° 0 mm 1 m/S 744 mmHg 97%
    23:00 +23°C° 0 mm 1 m/S 744 mmHg 98%

    27 April, Freitag

    Zeit Temperatur Niederschläge Wind Luftdruck Luftfeuchtigkeit
    00:00 +23°C° 0 mm 1 m/S 744 mmHg 98%
    01:00 +21°C° 0 mm 0 m/S 744 mmHg 98%
    02:00 +21°C° 0 mm 0 m/S 743 mmHg 98%
    03:00 +21°C° 0 mm 0 m/S 743 mmHg 97%
    04:00 +21°C° 0 mm 0 m/S 743 mmHg 97%
    05:00 +23°C° 0 mm 1 m/S 744 mmHg 96%
    06:00 +23°C° 0 mm 1 m/S 744 mmHg 95%
    07:00 +24°C° 0,1 mm 1 m/S 744 mmHg 91%
    08:00 +25°C° 0,1 mm 1 m/S 745 mmHg 88%
    09:00 +25°C° 0,1 mm 1 m/S 745 mmHg 85%
    10:00 +27°C° 0 mm 1 m/S 745 mmHg 77%
    11:00 +29°C° 0 mm 1 m/S 745 mmHg 70%
    12:00 +31°C° 0 mm 1 m/S 744 mmHg 62%
    13:00 +30°C° 0,3 mm 1 m/S 744 mmHg 63%
    14:00 +30°C° 0,3 mm 1 m/S 743 mmHg 64%
    15:00 +30°C° 0,3 mm 1 m/S 742 mmHg 65%
    16:00 +28°C° 0,5 mm 1 m/S 743 mmHg 73%
    17:00 +27°C° 0,5 mm 1 m/S 743 mmHg 82%
    18:00 +25°C° 0,5 mm 1 m/S 743 mmHg 90%
    19:00 +24°C° 0 mm 1 m/S 744 mmHg 92%
    20:00 +24°C° 0 mm 1 m/S 744 mmHg 95%
    21:00 +23°C° 0 mm 1 m/S 745 mmHg 97%
    22:00 +23°C° 0 mm 1 m/S 745 mmHg 97%
    23:00 +23°C° 0 mm 1 m/S 745 mmHg 98%

    28 April, Samstag

    Zeit Temperatur Niederschläge Wind Luftdruck Luftfeuchtigkeit
    00:00 +23°C° 0 mm 1 m/S 745 mmHg 98%
    01:00 +23°C° 0 mm 1 m/S 744 mmHg 98%
    02:00 +23°C° 0 mm 1 m/S 744 mmHg 97%
    03:00 +23°C° 0 mm 1 m/S 743 mmHg 97%
    04:00 +23°C° 0,1 mm 1 m/S 744 mmHg 96%
    05:00 +23°C° 0,1 mm 1 m/S 744 mmHg 96%
    06:00 +23°C° 0,1 mm 1 m/S 744 mmHg 96%
    07:00 +25°C° 0,1 mm 1 m/S 745 mmHg 91%
    08:00 +26°C° 0,1 mm 1 m/S 745 mmHg 85%
    09:00 +27°C° 0,1 mm 2 m/S 746 mmHg 80%
    10:00 +28°C° 0,1 mm 2 m/S 745 mmHg 73%
    11:00 +30°C° 0,1 mm 2 m/S 745 mmHg 66%
    12:00 +31°C° 0,1 mm 2 m/S 744 mmHg 59%
    13:00 +31°C° 0,4 mm 2 m/S 744 mmHg 61%
    14:00 +30°C° 0,4 mm 2 m/S 743 mmHg 63%
    15:00 +30°C° 0,4 mm 2 m/S 743 mmHg 65%
    16:00 +28°C° 0,4 mm 2 m/S 743 mmHg 73%
    17:00 +27°C° 0,4 mm 2 m/S 743 mmHg 81%
    18:00 +25°C° 0,4 mm 2 m/S 744 mmHg 89%
    19:00 +24°C° 0 mm 1 m/S 744 mmHg 92%
    20:00 +24°C° 0 mm 1 m/S 744 mmHg 95%
    21:00 +23°C° 0 mm 1 m/S 745 mmHg 97%
    22:00 +23°C° 0 mm 1 m/S 745 mmHg 97%
    23:00 +23°C° 0 mm 1 m/S 745 mmHg 98%

    29 April, Sonntag

    Zeit Temperatur Niederschläge Wind Luftdruck Luftfeuchtigkeit
    00:00 +23°C° 0 mm 1 m/S 745 mmHg 98%
    01:00 +23°C° 0 mm 1 m/S 744 mmHg 98%
    02:00 +23°C° 0 mm 1 m/S 744 mmHg 97%
    03:00 +23°C° 0 mm 1 m/S 744 mmHg 97%
    04:00 +23°C° 0 mm 1 m/S 744 mmHg 97%
    05:00 +23°C° 0 mm 1 m/S 744 mmHg 96%
    06:00 +22°C° 0 mm 1 m/S 745 mmHg 96%
    07:00 +24°C° 0 mm 1 m/S 745 mmHg 90%
    08:00 +25°C° 0 mm 1 m/S 745 mmHg 84%
    09:00 +26°C° 0 mm 1 m/S 746 mmHg 78%
    10:00 +28°C° 0 mm 1 m/S 745 mmHg 70%
    11:00 +29°C° 0 mm 1 m/S 745 mmHg 63%
    12:00 +31°C° 0 mm 1 m/S 744 mmHg 56%
    13:00 +31°C° 0 mm 2 m/S 744 mmHg 55%
    14:00 +31°C° 0 mm 2 m/S 743 mmHg 55%
    15:00 +31°C° 0 mm 2 m/S 743 mmHg 54%
    16:00 +29°C° 0 mm 2 m/S 743 mmHg 62%
    17:00 +27°C° 0 mm 2 m/S 743 mmHg 69%
    18:00 +26°C° 0 mm 2 m/S 744 mmHg 77%
    19:00 +25°C° 0 mm 2 m/S 744 mmHg 83%
    20:00 +24°C° 0 mm 1 m/S 745 mmHg 88%
    21:00 +23°C° 0 mm 1 m/S 745 mmHg 93%
    22:00 +23°C° 0 mm 1 m/S 745 mmHg 95%
    23:00 +23°C° 0 mm 1 m/S 745 mmHg 96%
    Mehr zeigen